Temp
11 11 11 11 11 11 11 11 11 10 10 11 11 12 13 13 13 13 14 14 14 14 14 14 14 15 15 15 15 15 15 15 15 14 14 14 13 13 13 13 13 13 13 12 12 12 12 12 12 12 12 12 12 12 12 11 11 11 11 11 11 11 11 11 11 11 11 10 10
11 11 11 11 11 11 11 11 11 11 10 11 11 12 12 13 14 14 14 14 14 14 14 14 14 15 14 14 14 14 14 14 14 14 13 13 13 13 13 13 13 13 12 12 12 12 12 12 12 12 12 12 12 11 11 11 11 11 11 11 11 11 11 11 11 11 11 10 10
11 11 11 11 11 11 11 11 12 11 11 11 11 12 12 13 14 14 14 14 14 14 14 14 14 14 14 14 14 14 14 14 14 13 13 13 13 13 13 13 13 13 13 12 12 12 12 11 11 11 11 11 11 11 11 11 11 11 11 11 11 11 11 11 11 11 11 11 11
11 11 11 11 11 11 11 12 12 12 11 11 11 11 12 13 13 14 15 15 14 14 14 14 14 14 14 14 14 14 14 14 13 13 13 13 13 13 13 13 13 13 12 12 12 12 11 11 11 11 11 11 11 11 11 11 11 11 11 11 11 11 11 11 11 11 11 11 11
11 11 11 11 11 11 11 12 12 12 11 10 10 11 12 12 13 14 14 15 14 14 14 14 14 14 14 14 14 14 14 13 13 13 13 13 13 13 13 13 12 12 12 12 12 12 12 11 11 11 11 11 11 11 11 11 11 11 11 11 11 11 11 11 11 11 11 11 11
11 11 11 11 11 11 11 12 12 12 11 10 9 10 12 12 13 14 14 15 15 15 14 14 14 14 14 14 14 14 14 14 14 14 14 14 14 13 13 13 12 12 12 12 12 12 12 12 11 11 11 11 12 12 11 11 11 10 11 11 11 11 11 11 11 11 11 10 10
11 11 11 11 11 11 11 12 12 12 11 10 10 10 12 12 13 14 14 15 15 15 15 14 14 14 14 14 14 14 14 14 14 14 14 13 13 13 13 12 12 12 12 12 12 12 12 12 12 12 11 12 12 12 11 11 11 11 11 11 11 11 11 11 11 11 10 10 10
11 11 11 11 11 11 11 11 12 12 12 11 10 11 12 13 13 14 14 15 15 15 15 15 15 14 14 14 14 14 13 13 13 13 13 13 13 12 12 12 12 12 12 12 12 12 12 12 12 12 12 12 12 11 11 10 10 11 11 11 11 11 11 11 11 11 10 10 10
10 11 11 11 11 11 11 11 11 12 12 12 11 11 12 13 13 14 14 14 15 15 15 15 14 14 14 14 13 13 13 13 13 13 12 12 12 12 13 13 13 13 12 12 12 12 12 12 12 12 12 12 11 11 10 10 10 10 11 11 11 11 11 11 11 11 11 10 10
11 11 11 11 11 11 11 11 11 12 12 12 11 11 12 12 13 13 14 14 14 14 14 14 14 14 13 13 13 13 13 13 13 12 12 12 13 13 13 13 13 12 12 12 12 12 12 12 12 12 12 11 11 11 10 10 10 10 11 11 11 11 11 11 11 11 11 10 10
11 11 11 11 11 11 11 11 12 12 12 12 11 12 12 12 13 13 13 14 14 14 14 14 14 13 13 13 13 13 13 13 12 12 12 13 13 13 13 13 12 12 12 12 12 11 11 11 11 11 11 11 11 11 11 10 10 11 11 11 11 11 11 11 11 11 10 10 10
11 11 11 11 11 11 11 12 12 12 12 11 11 12 12 12 12 12 13 13 13 14 14 14 14 13 13 13 13 13 13 13 13 13 13 13 13 13 13 12 12 12 12 12 12 11 11 11 11 11 11 11 11 11 11 10 11 11 11 11 11 11 11 10 10 10 10 10 10
11 11 11 11 11 11 12 12 12 12 12 11 12 12 12 12 12 12 12 13 13 13 13 13 13 13 13 13 13 13 13 13 13 13 13 13 13 13 12 12 12 12 12 12 12 12 12 12 11 11 11 11 11 11 11 11 11 11 11 11 11 10 10 10 10 10 10 10 10
12 11 11 11 12 12 13 13 13 12 12 11 12 12 12 12 12 12 12 12 13 13 13 13 13 12 12 12 12 13 13 13 13 13 13 13 13 12 12 12 12 12 12 12 12 12 12 12 11 11 11 11 11 11 11 11 11 11 11 11 10 10 10 10 10 10 10 10 10
12 11 12 12 13 13 13 13 12 12 11 12 12 12 12 12 12 12 12 12 12 12 12 12 12 12 12 12 12 12 12 13 13 13 13 13 13 12 12 12 12 12 12 12 11 11 11 11 11 11 11 11 11 11 11 11 11 11 11 10 11 11 10 10 10 10 10 10 10
12 12 12 13 13 13 13 13 12 11 12 12 12 12 12 12 12 12 12 12 12 12 12 12 12 12 12 12 12 12 12 13 13 13 13 13 13 12 12 12 12 12 12 11 11 11 11 11 11 11 11 11 11 11 11 11 11 11 11 11 11 11 10 10 10 10 10 10 10
11 12 13 13 13 13 13 12 12 11 12 12 12 12 12 12 12 12 12 12 12 11 12 12 12 12 12 12 12 12 12 13 13 13 13 13 13 12 12 12 12 12 11 11 11 11 11 11 11 11 11 11 11 11 11 11 11 11 11 11 11 10 10 10 10 10 10 10 10
11 11 12 12 13 12 12 12 11 11 12 12 12 12 12 12 12 12 12 12 11 11 12 12 12 12 12 12 12 12 12 12 13 13 13 13 13 13 13 12 12 12 11 11 11 11 11 11 11 11 11 11 11 11 11 11 11 11 11 11 11 11 10 10 10 10 10 10 10
11 11 11 12 12 12 11 11 11 12 12 12 12 12 12 12 12 12 12 12 11 12 12 12 12 12 12 12 12 12 12 12 13 13 13 13 13 13 13 12 12 12 12 11 11 11 11 11 11 11 11 11 11 11 11 11 11 11 11 11 11 11 11 10 10 10 10 10 10
11 11 11 12 12 11 11 11 11 12 12 12 12 12 12 12 12 12 12 12 12 12 12 12 12 12 12 12 12 12 12 12 12 12 12 12 12 12 12 12 12 12 11 11 11 11 11 11 11 11 11 11 11 11 11 11 11 11 11 11 11 11 11 11 10 10 10 10 10
11 11 12 12 11 11 11 11 12 12 13 12 12 12 12 12 12 12 12 12 12 12 12 12 12 12 12 12 12 12 12 12 12 12 12 12 12 11 11 11 11 11 11 11 11 11 11 11 11 11 11 11 11 11 11 11 11 11 11 11 11 11 11 11 11 10 10 10 10
11 11 11 11 11 11 11 12 12 12 13 12 12 12 12 12 12 12 12 12 12 12 13 12 12 12 12 12 12 12 12 12 12 12 12 11 11 11 11 11 11 11 11 11 11 11 11 11 11 11 11 11 11 11 11 11 11 11 11 11 11 11 11 11 11 11 10 10 10
11 11 11 11 11 11 11 12 12 12 13 12 13 13 12 12 12 12 12 12 12 12 12 12 12 12 12 12 12 12 12 12 12 12 12 11 11 11 11 11 11 11 11 11 11 11 11 11 11 11 11 11 11 11 11 11 11 11 11 11 11 11 11 11 11 11 10 10 10
11 11 11 11 11 11 12 12 12 12 12 12 12 12 12 12 12 12 12 12 12 12 12 12 12 12 12 12 12 12 12 12 12 12 12 12 11 11 11 11 11 11 11 11 11 11 11 11 11 11 11 11 11 11 11 11 11 11 11 11 11 11 11 11 11 11 10 10 10
11 11 11 11 11 11 11 12 12 12 12 12 12 12 12 12 12 12 12 12 12 12 12 12 12 12 12 12 12 12 12 12 12 12 12 12 12 12 11 11 12 11 11 11 11 11 11 11 11 11 11 11 11 11 11 11 11 11 11 11 11 11 11 11 10 10 10 10 10
11 11 11 11 11 11 11 11 11 12 12 12 12 12 12 12 12 12 12 12 12 12 12 12 12 12 11 12 12 12 12 12 12 12 12 12 12 12 12 12 12 11 11 11 11 11 11 11 11 11 11 11 11 11 11 11 11 11 11 11 11 11 11 10 10 10 10 10 10
11 11 11 11 11 11 11 11 11 11 11 12 12 12 12 12 12 12 12 12 12 12 12 12 11 11 11 11 12 12 12 12 12 12 12 12 12 12 12 12 12 12 11 11 11 11 11 11 11 11 11 11 11 10 10 10 10 10 10 10 11 11 11 11 10 10 10 10 10
10 10 10 10 11 11 11 12 12 12 11 11 12 12 12 12 12 12 11 11 12 12 12 11 11 11 11 11 12 12 12 12 12 12 12 12 12 12 12 12 12 12 11 11 11 11 11 11 11 11 11 11 11 11 11 10 11 10 10 10 10 10 11 11 10 10 10 10 10
10 10 10 10 11 12 12 12 12 12 11 11 12 12 12 12 12 11 11 11 12 12 12 11 11 11 11 11 12 12 12 11 11 11 11 11 11 12 12 12 12 11 11 11 10 10 10 10 10 10 10 10 10 10 10 10 11 11 11 10 10 10 10 10 10 10 10 10 10
10 10 11 11 12 12 12 12 12 11 11 11 12 12 12 12 11 11 11 11 12 12 11 11 11 11 11 11 11 11 11 11 11 11 11 11 11 11 11 11 11 11 10 10 10 10 10 10 10 10 10 10 10 10 10 10 10 10 10 10 10 10 10 10 10 10 10 10 10
10 11 11 12 12 11 11 11 11 11 11 11 11 11 12 11 11 11 11 11 11 11 11 11 11 11 11 11 11 11 11 11 11 11 11 11 11 11 11 11 10 10 10 10 10 10 10 10 9 9 9 9 9 10 10 10 10 10 10 10 10 10 10 10 10 10 10 10 10
10 11 11 11 11 11 11 10 10 11 11 11 11 11 11 11 11 11 11 11 11 11 11 10 10 10 11 11 11 11 11 11 11 11 11 11 11 11 11 10 10 10 10 10 10 10 10 9 9 9 9 9 10 10 10 10 10 10 10 10 10 10 10 10 10 10 10 10 10
11 11 11 11 11 10 10 10 10 10 11 11 11 11 11 11 11 10 10 11 10 10 10 10 10 10 10 11 11 11 11 11 11 11 11 11 11 10 10 10 10 10 10 10 9 9 9 9 9 9 9 9 10 10 10 10 10 10 10 10 10 10 10 10 10 10 10 10 10
10 11 11 10 10 10 10 10 10 10 10 10 10 10 10 10 10 10 10 10 10 10 10 10 10 10 10 10 10 10 10 10 10 10 10 10 10 10 10 10 10 10 10 9 9 9 9 9 9 9 9 9 9 10 10 10 10 10 10 10 10 10 10 10 10 10 10 10 10
10 10 10 10 10 10 10 10 10 10 10 10 10 10 10 10 10 10 10 10 10 10 10 10 10 10 10 10 10 10 10 10 10 10 10 10 10 10 10 10 10 9 9 9 9 9 9 8 9 9 9 9 9 9 10 10 10 10 10 10 10 10 10 10 10 10 10 10 10
9 9 10 10 10 10 10 10 10 10 10 10 10 9 9 9 9 9 9 9 10 10 10 10 10 10 10 9 9 9 10 10 10 10 10 10 10 10 10 9 9 9 9 8 8 8 8 8 8 9 9 9 9 9 9 9 9 9 9 9 9 9 9 9 9 9 9 9 9
9 9 10 10 10 10 10 10 10 10 9 9 9 9 9 9 9 9 9 9 10 10 10 10 10 9 9 9 9 9 9 9 9 9 9 9 9 9 9 9 8 8 8 8 8 8 8 8 8 8 8 8 9 9 9 9 9 9 9 9 9 9 9 9 9 9 9 9 9
10 10 10 10 10 10 9 9 9 9 9 9 9 9 9 9 9 9 9 9 9 10 10 9 9 9 9 9 9 9 9 9 9 9 9 9 9 8 8 8 8 8 8 7 7 7 7 7 7 8 8 8 8 8 8 8 8 8 8 8 8 8 8 8 8 8 8 8 8
9 9 10 10 9 9 9 9 9 9 9 9 9 9 9 9 9 9 9 9 9 9 9 9 9 9 9 9 9 9 9 9 9 8 9 8 8 8 8 8 7 7 7 7 7 7 7 7 7 7 7 8 8 8 8 8 8 8 8 8 8 8 8 8 8 8 8 8 8
9 9 9 9 9 9 9 9 9 9 9 9 9 9 9 9 9 9 9 9 9 9 9 9 9 8 8 8 9 9 9 9 8 8 8 8 7 7 7 7 7 7 7 6 6 6 6 6 6 6 7 7 7 7 7 7 7 7 7 7 7 7 7 7 7 7 7 7 7
8 8 9 9 8 8 9 9 8 8 8 8 8 8 8 8 9 9 9 8 8 8 8 8 8 8 8 8 8 8 8 8 8 7 7 7 7 7 7 7 7 6 6 6 5 5 5 6 6 6 6 6 6 7 7 7 7 7 7 7 7 7 7 7 7 7 7 7 7
Height
1364 1365 1367 1368 1369 1371 1373 1374 1375 1376 1377 1376 1377 1378 1380 1382 1383 1385 1386 1387 1388 1390 1392 1395 1397 1400 1402 1405 1407 1410 1413 1416 1418 1420 1422 1424 1426 1428 1430 1432 1433 1435 1437 1439 1441 1442 1444 1446 1447 1449 1450 1451 1452 1453 1455 1456 1457 1458 1459 1460 1461 1462 1463 1464 1465 1466 1467 1468 1469
1363 1365 1367 1368 1369 1371 1372 1373 1374 1375 1377 1377 1378 1380 1382 1383 1384 1384 1385 1387 1388 1391 1393 1395 1397 1400 1402 1405 1408 1410 1413 1415 1417 1419 1422 1423 1426 1427 1429 1431 1433 1435 1436 1438 1440 1442 1443 1445 1447 1448 1449 1450 1452 1452 1453 1455 1456 1457 1458 1458 1459 1460 1461 1462 1464 1465 1466 1467 1469
1363 1364 1366 1367 1368 1370 1371 1372 1373 1375 1376 1378 1381 1383 1384 1385 1384 1385 1386 1387 1389 1391 1393 1395 1398 1400 1403 1405 1408 1410 1412 1415 1417 1419 1421 1423 1425 1427 1429 1431 1432 1434 1436 1438 1440 1441 1443 1444 1446 1447 1448 1449 1450 1451 1452 1453 1455 1456 1456 1457 1458 1459 1460 1461 1463 1465 1466 1468 1469
1362 1364 1365 1367 1367 1369 1370 1372 1373 1374 1376 1379 1382 1385 1385 1385 1385 1385 1386 1388 1390 1391 1393 1395 1398 1400 1403 1405 1407 1410 1412 1414 1416 1418 1420 1422 1424 1426 1428 1431 1432 1434 1436 1437 1439 1440 1442 1443 1444 1446 1447 1448 1449 1450 1451 1452 1453 1454 1455 1456 1457 1457 1458 1460 1462 1464 1466 1467 1469
1362 1363 1364 1366 1367 1368 1370 1372 1373 1375 1376 1379 1383 1384 1384 1384 1385 1385 1387 1388 1390 1392 1393 1396 1398 1400 1403 1405 1407 1410 1412 1414 1416 1418 1420 1422 1424 1426 1428 1431 1432 1433 1435 1436 1438 1439 1441 1442 1443 1444 1445 1446 1447 1448 1450 1451 1452 1453 1454 1455 1455 1456 1458 1460 1462 1463 1465 1466 1467
1361 1362 1364 1365 1367 1368 1370 1372 1373 1374 1376 1379 1382 1383 1382 1383 1384 1386 1387 1389 1391 1392 1394 1396 1398 1401 1403 1405 1408 1410 1412 1414 1416 1418 1420 1422 1424 1426 1428 1430 1431 1432 1434 1435 1437 1438 1440 1441 1442 1443 1444 1445 1446 1448 1449 1450 1451 1452 1453 1454 1454 1456 1457 1459 1461 1462 1464 1465 1466
1360 1362 1363 1365 1366 1367 1369 1371 1372 1374 1376 1378 1381 1382 1382 1383 1384 1386 1388 1390 1391 1393 1395 1397 1399 1401 1403 1406 1408 1410 1412 1414 1416 1418 1420 1422 1424 1426 1427 1429 1430 1432 1433 1435 1437 1438 1439 1440 1441 1442 1442 1444 1446 1447 1448 1449 1450 1451 1452 1452 1453 1455 1457 1459 1460 1461 1462 1463 1464
1360 1362 1363 1364 1365 1367 1368 1370 1372 1373 1375 1378 1381 1382 1383 1384 1385 1387 1388 1390 1392 1394 1396 1397 1400 1402 1404 1406 1408 1410 1412 1414 1416 1418 1420 1421 1423 1424 1426 1428 1430 1431 1433 1434 1436 1437 1438 1439 1440 1441 1442 1443 1445 1446 1447 1448 1449 1450 1451 1451 1452 1454 1456 1457 1459 1460 1461 1462 1463
1360 1362 1362 1363 1365 1366 1367 1369 1371 1373 1375 1377 1380 1382 1383 1384 1385 1387 1389 1391 1392 1394 1396 1398 1400 1402 1404 1406 1408 1410 1412 1414 1416 1417 1419 1421 1422 1424 1426 1428 1430 1431 1433 1434 1435 1436 1437 1438 1439 1440 1441 1442 1444 1445 1446 1447 1448 1449 1450 1450 1451 1453 1455 1457 1457 1458 1459 1460 1462
1360 1361 1362 1363 1364 1365 1367 1369 1371 1373 1376 1378 1380 1382 1384 1384 1385 1387 1389 1390 1392 1394 1396 1397 1399 1402 1404 1406 1407 1409 1411 1413 1416 1417 1419 1421 1423 1425 1426 1428 1429 1431 1432 1433 1434 1436 1437 1438 1439 1440 1441 1442 1443 1444 1445 1446 1447 1448 1449 1449 1450 1452 1454 1455 1456 1457 1458 1459 1460
1359 1360 1361 1362 1363 1365 1367 1369 1372 1374 1377 1378 1380 1383 1384 1384 1385 1387 1389 1390 1392 1394 1396 1397 1399 1402 1404 1406 1408 1410 1412 1413 1416 1417 1420 1422 1423 1425 1426 1427 1429 1430 1431 1432 1434 1435 1436 1437 1438 1439 1440 1441 1442 1443 1444 1445 1446 1447 1447 1448 1450 1451 1453 1454 1455 1456 1457 1457 1458
1359 1360 1361 1362 1363 1365 1367 1370 1372 1375 1377 1379 1381 1383 1384 1384 1386 1387 1389 1390 1392 1394 1395 1397 1399 1402 1404 1407 1408 1410 1412 1414 1416 1418 1420 1422 1423 1425 1426 1427 1428 1429 1430 1432 1433 1434 1435 1436 1437 1438 1440 1441 1441 1442 1442 1443 1445 1446 1447 1448 1449 1451 1452 1453 1454 1455 1455 1456 1457
1359 1360 1361 1362 1363 1366 1368 1371 1373 1376 1377 1379 1381 1382 1383 1385 1386 1388 1389 1390 1392 1394 1396 1397 1400 1402 1404 1407 1409 1411 1413 1415 1417 1418 1420 1422 1423 1424 1425 1427 1427 1428 1429 1431 1432 1433 1434 1435 1436 1437 1438 1439 1440 1441 1441 1442 1443 1445 1446 1447 1448 1449 1450 1451 1452 1453 1454 1455 1456
1358 1359 1360 1362 1364 1367 1369 1371 1374 1376 1378 1380 1381 1382 1384 1385 1387 1388 1389 1390 1392 1393 1395 1397 1400 1402 1404 1407 1409 1411 1413 1415 1417 1418 1420 1421 1422 1423 1425 1426 1427 1428 1429 1430 1431 1432 1433 1434 1435 1436 1437 1437 1438 1439 1440 1441 1442 1444 1445 1446 1447 1448 1449 1450 1451 1452 1453 1454 1455
1358 1359 1360 1362 1364 1366 1369 1371 1374 1376 1378 1380 1381 1382 1384 1386 1387 1388 1389 1391 1392 1393 1395 1397 1400 1402 1405 1407 1409 1411 1413 1415 1416 1418 1419 1420 1422 1422 1423 1425 1426 1427 1428 1429 1430 1431 1432 1433 1433 1434 1435 1436 1437 1438 1439 1441 1442 1443 1444 1445 1445 1446 1447 1448 1449 1451 1452 1452 1453
1357 1358 1360 1362 1364 1366 1369 1372 1374 1377 1378 1380 1381 1382 1384 1386 1387 1388 1389 1391 1392 1394 1396 1398 1400 1403 1405 1407 1409 1412 1413 1415 1416 1417 1418 1419 1421 1422 1423 1424 1426 1427 1428 1428 1429 1430 1431 1432 1432 1433 1434 1435 1437 1438 1439 1440 1441 1442 1443 1443 1444 1445 1446 1447 1448 1449 1450 1451 1452
1357 1359 1360 1362 1364 1367 1369 1372 1375 1377 1379 1380 1381 1382 1384 1385 1387 1388 1389 1391 1392 1394 1396 1398 1401 1403 1405 1407 1409 1411 1412 1414 1415 1417 1418 1419 1420 1421 1422 1424 1425 1426 1427 1427 1428 1429 1430 1431 1432 1433 1434 1435 1437 1437 1438 1439 1440 1441 1442 1442 1443 1444 1445 1446 1447 1448 1449 1450 1451
1358 1360 1362 1364 1366 1368 1371 1373 1375 1377 1379 1380 1381 1383 1384 1386 1387 1388 1390 1391 1393 1394 1397 1399 1401 1403 1405 1407 1409 1411 1412 1414 1415 1416 1417 1419 1420 1421 1422 1423 1424 1425 1426 1427 1427 1428 1429 1431 1432 1432 1434 1435 1436 1437 1437 1438 1439 1440 1441 1442 1442 1443 1444 1445 1446 1447 1447 1449 1450
1359 1361 1363 1365 1367 1370 1372 1374 1376 1377 1379 1380 1382 1383 1384 1386 1387 1388 1390 1392 1393 1395 1397 1399 1401 1403 1405 1407 1409 1410 1412 1413 1415 1416 1417 1419 1420 1421 1422 1423 1424 1425 1425 1426 1427 1428 1430 1431 1432 1432 1433 1434 1435 1436 1436 1437 1437 1438 1439 1440 1441 1442 1443 1444 1445 1445 1446 1447 1448
1360 1362 1364 1366 1368 1371 1373 1375 1377 1378 1380 1381 1382 1383 1384 1386 1387 1388 1390 1392 1393 1395 1397 1399 1401 1403 1405 1407 1409 1410 1412 1413 1415 1416 1417 1418 1419 1420 1421 1422 1423 1424 1425 1426 1427 1428 1429 1430 1431 1432 1432 1433 1434 1434 1435 1436 1436 1437 1438 1439 1440 1441 1442 1442 1443 1444 1445 1446 1447
1361 1363 1365 1367 1369 1372 1374 1376 1377 1379 1380 1381 1382 1383 1384 1385 1387 1388 1390 1392 1394 1396 1397 1399 1401 1403 1405 1407 1408 1410 1412 1413 1414 1415 1417 1417 1419 1420 1421 1422 1423 1424 1425 1426 1427 1427 1428 1429 1430 1430 1431 1432 1432 1433 1434 1434 1435 1436 1437 1438 1439 1440 1441 1442 1442 1443 1444 1445 1446
1362 1364 1366 1368 1370 1372 1375 1377 1378 1379 1380 1381 1382 1383 1384 1385 1387 1389 1391 1392 1394 1396 1398 1400 1401 1403 1405 1407 1408 1409 1410 1411 1412 1414 1415 1416 1417 1419 1420 1422 1422 1424 1425 1425 1426 1427 1427 1428 1428 1429 1430 1430 1431 1432 1432 1433 1434 1434 1435 1437 1438 1439 1440 1441 1441 1442 1443 1444 1445
1362 1364 1367 1369 1371 1373 1376 1377 1378 1379 1381 1382 1382 1383 1385 1386 1387 1389 1391 1393 1395 1396 1398 1399 1401 1402 1404 1405 1407 1407 1409 1410 1411 1412 1414 1416 1417 1418 1419 1420 1422 1422 1423 1424 1425 1426 1426 1427 1427 1428 1428 1429 1430 1431 1431 1432 1432 1433 1434 1435 1437 1437 1438 1439 1440 1441 1442 1442 1443
1363 1365 1367 1370 1372 1374 1376 1377 1378 1380 1381 1382 1383 1385 1386 1387 1388 1390 1391 1393 1394 1395 1396 1397 1399 1400 1402 1403 1404 1406 1407 1409 1411 1412 1413 1415 1416 1417 1419 1420 1421 1421 1422 1422 1423 1424 1425 1426 1426 1427 1427 1428 1429 1429 1430 1431 1431 1432 1433 1434 1435 1436 1437 1438 1438 1439 1440 1441 1442
1365 1367 1368 1371 1373 1375 1377 1378 1379 1380 1381 1382 1384 1385 1386 1387 1387 1388 1389 1391 1392 1393 1395 1397 1398 1400 1401 1402 1404 1405 1407 1408 1410 1412 1413 1414 1415 1417 1418 1419 1419 1420 1421 1422 1422 1423 1424 1424 1425 1426 1427 1427 1428 1429 1429 1430 1430 1431 1432 1432 1433 1434 1435 1436 1437 1438 1439 1440 1440
1367 1368 1370 1372 1374 1376 1377 1378 1379 1380 1381 1382 1383 1384 1385 1386 1387 1388 1389 1390 1392 1393 1395 1397 1398 1400 1401 1403 1404 1405 1407 1408 1410 1411 1412 1414 1415 1416 1417 1418 1419 1419 1420 1421 1422 1423 1423 1424 1425 1425 1426 1427 1427 1428 1428 1429 1429 1430 1431 1431 1432 1433 1434 1435 1436 1437 1437 1438 1439
1368 1370 1372 1374 1375 1376 1377 1378 1378 1379 1380 1381 1382 1384 1385 1386 1387 1388 1389 1391 1392 1394 1396 1397 1399 1400 1401 1403 1404 1405 1407 1408 1409 1411 1412 1413 1414 1416 1417 1418 1419 1419 1420 1420 1421 1422 1423 1423 1424 1425 1425 1426 1427 1427 1428 1428 1429 1429 1430 1431 1431 1432 1433 1434 1434 1435 1436 1437 1437
1369 1371 1372 1373 1374 1375 1376 1377 1377 1379 1380 1381 1382 1383 1385 1386 1387 1389 1390 1391 1393 1394 1396 1398 1399 1400 1401 1402 1404 1405 1406 1407 1409 1410 1412 1413 1414 1416 1417 1418 1418 1419 1419 1420 1420 1421 1422 1422 1423 1424 1424 1425 1426 1426 1427 1427 1427 1428 1429 1429 1430 1431 1432 1433 1434 1434 1435 1435 1436
1370 1371 1372 1372 1372 1373 1375 1376 1377 1378 1380 1381 1382 1383 1385 1386 1388 1390 1391 1392 1393 1395 1397 1398 1399 1400 1401 1402 1403 1404 1406 1407 1408 1410 1411 1412 1414 1415 1416 1417 1417 1418 1419 1419 1420 1421 1421 1422 1422 1422 1423 1423 1424 1425 1425 1426 1426 1426 1427 1427 1428 1428 1430 1431 1432 1432 1433 1434 1434
1368 1369 1370 1370 1371 1373 1375 1376 1377 1378 1379 1380 1382 1383 1385 1387 1389 1390 1392 1392 1394 1396 1397 1398 1399 1400 1401 1402 1403 1404 1406 1407 1408 1410 1411 1412 1413 1415 1415 1416 1417 1417 1418 1419 1420 1420 1421 1421 1422 1422 1422 1423 1423 1424 1424 1425 1425 1426 1426 1427 1427 1428 1428 1429 1430 1431 1432 1432 1433
1367 1368 1369 1370 1372 1373 1375 1377 1377 1379 1380 1381 1383 1384 1386 1388 1390 1391 1392 1393 1395 1396 1397 1398 1399 1400 1401 1402 1403 1405 1406 1407 1408 1410 1411 1412 1413 1414 1415 1415 1416 1417 1417 1418 1419 1419 1420 1421 1421 1421 1422 1422 1423 1423 1423 1424 1424 1425 1425 1426 1427 1427 1428 1428 1429 1430 1430 1431 1431
1366 1367 1369 1371 1373 1375 1376 1377 1378 1379 1381 1382 1384 1385 1387 1389 1391 1392 1393 1394 1395 1397 1397 1399 1400 1401 1402 1403 1404 1405 1406 1407 1408 1410 1411 1412 1412 1413 1414 1415 1416 1416 1417 1417 1418 1419 1419 1420 1420 1421 1421 1422 1422 1422 1423 1423 1423 1424 1424 1425 1425 1426 1426 1427 1427 1427 1428 1429 1429
1367 1368 1370 1372 1374 1377 1378 1379 1380 1381 1382 1383 1385 1387 1388 1390 1391 1392 1394 1395 1396 1397 1398 1399 1400 1401 1402 1403 1404 1405 1407 1407 1408 1409 1410 1411 1412 1413 1414 1415 1415 1416 1416 1417 1417 1418 1418 1419 1420 1420 1421 1421 1422 1422 1422 1422 1422 1422 1423 1423 1423 1424 1424 1425 1425 1426 1426 1427 1427
1368 1370 1372 1374 1377 1378 1380 1381 1381 1382 1383 1384 1386 1388 1389 1391 1392 1393 1395 1396 1397 1398 1399 1400 1401 1402 1403 1404 1405 1406 1407 1408 1409 1410 1410 1411 1412 1413 1414 1414 1415 1415 1416 1416 1417 1417 1417 1418 1419 1419 1420 1420 1421 1421 1421 1421 1421 1422 1422 1422 1422 1423 1423 1424 1424 1425 1425 1425 1426
1371 1372 1374 1376 1378 1380 1381 1382 1383 1383 1385 1386 1388 1389 1391 1392 1394 1395 1396 1397 1397 1398 1399 1400 1401 1402 1403 1404 1405 1406 1407 1408 1409 1410 1411 1411 1412 1412 1413 1414 1414 1415 1415 1416 1416 1417 1417 1418 1418 1418 1419 1419 1419 1420 1420 1420 1420 1421 1421 1421 1422 1422 1422 1423 1423 1424 1424 1425 1425
1375 1375 1376 1378 1380 1381 1382 1383 1384 1385 1387 1388 1389 1391 1392 1393 1395 1396 1396 1397 1398 1399 1400 1401 1402 1402 1403 1405 1406 1407 1407 1408 1409 1410 1411 1411 1412 1412 1413 1413 1414 1414 1415 1416 1416 1417 1417 1417 1418 1418 1418 1418 1418 1419 1419 1419 1420 1420 1420 1420 1421 1421 1422 1422 1422 1423 1423 1423 1424
1377 1377 1378 1379 1381 1382 1383 1385 1386 1387 1388 1390 1391 1392 1393 1394 1395 1396 1397 1398 1399 1400 1400 1401 1402 1403 1404 1405 1406 1407 1408 1408 1409 1410 1411 1411 1412 1412 1412 1413 1413 1414 1415 1415 1416 1417 1417 1417 1417 1417 1417 1417 1418 1418 1418 1418 1419 1419 1419 1420 1420 1420 1421 1421 1422 1422 1422 1423 1423
1378 1379 1380 1382 1383 1384 1385 1387 1388 1389 1390 1391 1392 1393 1395 1396 1397 1397 1398 1399 1400 1400 1401 1402 1403 1404 1405 1406 1406 1407 1408 1408 1409 1410 1410 1411 1411 1412 1412 1413 1413 1414 1415 1415 1416 1416 1417 1417 1417 1417 1417 1417 1417 1417 1417 1418 1418 1418 1419 1419 1419 1420 1420 1421 1421 1422 1422 1422 1423
1380 1381 1382 1383 1385 1386 1387 1388 1389 1391 1392 1393 1394 1395 1396 1397 1397 1398 1399 1400 1401 1401 1402 1402 1403 1404 1405 1406 1406 1407 1407 1408 1409 1409 1410 1410 1411 1412 1412 1413 1413 1414 1414 1415 1416 1416 1416 1416 1416 1417 1417 1417 1417 1417 1417 1417 1418 1418 1418 1418 1419 1419 1420 1420 1421 1421 1422 1422 1423
1381 1382 1384 1385 1386 1387 1388 1389 1391 1392 1393 1394 1395 1396 1397 1398 1399 1399 1400 1401 1401 1402 1402 1403 1404 1404 1405 1406 1406 1407 1407 1408 1408 1409 1410 1410 1411 1412 1412 1412 1413 1413 1414 1415 1415 1416 1416 1416 1416 1416 1416 1417 1417 1417 1417 1417 1417 1417 1418 1418 1418 1419 1419 1420 1420 1421 1421 1422 1423
1383 1384 1385 1386 1387 1388 1390 1391 1392 1393 1394 1395 1396 1397 1398 1399 1400 1400 1401 1401 1402 1402 1403 1403 1404 1404 1405 1406 1406 1407 1407 1407 1408 1409 1409 1410 1411 1411 1412 1412 1413 1413 1414 1414 1415 1415 1415 1416 1416 1416 1416 1416 1417 1417 1417 1417 1417 1417 1417 1417 1418 1418 1418 1419 1419 1420 1421 1422 1422
Wind_Speed
19 21 21 21 20 21 22 21 20 18 17 18 21 19 19 26 32 36 38 39 39 39 39 39 39 38 38 37 37 36 36 35 34 34 33 32 30 28 27 26 26 26 25 26 26 26 26 25 24 23 23 24 25 25 26 26 27 28 30 32 34 35 37 39 41 44 46 48 49
21 21 21 20 20 20 22 23 22 20 19 18 19 17 18 26 34 37 37 37 37 38 38 38 39 39 38 38 37 37 37 36 36 34 33 32 30 28 28 27 27 26 26 26 26 26 26 25 25 24 24 25 25 26 26 26 27 28 30 33 36 38 39 40 41 43 45 46 46
21 21 21 20 20 21 23 24 24 23 22 20 19 19 21 28 35 38 38 38 38 38 39 39 39 39 39 39 38 38 38 37 36 35 33 32 30 29 28 28 27 26 26 25 25 25 25 25 25 25 25 25 25 26 26 26 26 28 31 35 39 40 40 40 40 41 42 43 43
22 22 22 21 22 23 24 24 24 25 25 23 22 22 23 28 34 37 38 39 39 39 40 40 40 40 40 39 39 38 38 36 35 34 33 32 31 30 29 28 27 26 26 25 24 24 23 23 24 25 25 26 26 25 25 24 24 27 31 37 40 42 41 38 37 37 38 39 40
24 24 23 22 22 23 24 24 25 25 25 25 24 23 23 28 33 36 36 38 39 39 40 40 40 40 40 39 39 38 37 35 34 33 33 32 31 30 29 27 27 26 25 25 25 24 22 22 23 24 26 27 27 25 23 22 23 26 31 37 41 41 39 35 33 33 35 37 39
25 25 24 22 22 23 25 26 27 26 25 24 24 22 23 29 33 34 33 35 36 37 38 39 39 39 38 38 37 36 35 34 33 32 32 31 30 29 28 27 26 26 26 26 26 24 23 23 23 25 27 28 29 26 24 22 23 25 30 36 40 40 36 31 29 30 32 35 38
27 27 25 22 21 23 26 29 30 28 25 24 24 22 23 29 33 33 31 31 32 34 35 35 36 36 36 36 36 35 33 32 31 31 30 30 29 28 27 26 26 26 26 25 25 24 24 25 26 27 28 28 29 27 26 25 24 25 29 34 37 37 33 28 26 27 30 33 36
28 27 25 22 21 24 28 31 32 30 26 23 23 21 23 29 31 31 30 30 31 31 32 32 33 34 35 35 34 33 32 30 29 29 28 28 27 27 27 27 26 26 25 24 23 23 24 27 29 30 29 28 27 27 27 26 25 27 30 34 36 35 31 26 25 26 28 30 33
29 27 25 22 22 24 29 33 33 30 25 22 22 22 24 29 30 30 30 31 31 30 31 31 32 33 33 33 32 32 30 29 28 27 27 27 28 28 28 27 26 25 24 23 23 23 24 26 29 30 29 27 26 27 27 27 27 29 33 36 37 34 29 25 24 25 26 29 32
29 27 25 23 23 25 29 33 34 30 25 22 22 23 25 29 29 30 30 30 30 30 30 31 32 32 32 31 31 31 30 29 27 27 27 29 30 29 28 26 25 24 24 24 23 23 24 25 27 28 27 26 25 25 26 26 28 31 35 38 38 34 29 26 25 26 27 29 33
29 27 25 24 24 25 29 34 35 31 26 23 23 25 28 29 29 28 28 28 28 28 29 30 32 33 33 31 31 31 31 29 28 28 30 31 31 29 28 26 26 25 25 25 24 24 24 25 26 26 26 25 24 24 24 25 28 32 36 38 36 33 29 27 27 28 29 31 34
28 27 25 24 24 26 30 34 35 31 27 24 25 27 29 29 28 27 26 26 26 27 27 29 32 34 35 33 32 31 30 30 30 31 32 32 31 29 28 27 26 26 25 24 24 24 25 26 26 26 25 25 24 24 24 25 29 33 35 35 33 31 29 28 29 30 32 34 36
27 26 25 25 26 28 31 33 32 29 26 25 26 28 29 27 26 25 25 25 25 26 27 28 31 34 36 35 33 31 31 31 31 32 32 31 30 29 27 25 25 25 25 24 24 24 25 25 26 26 26 26 26 25 25 26 29 32 33 32 31 30 29 29 30 31 33 35 37
27 27 27 27 28 30 31 30 28 26 25 26 28 28 27 25 23 23 23 23 24 25 27 28 29 31 33 34 33 32 31 31 31 31 30 30 28 26 25 24 24 25 25 25 25 24 24 25 25 26 28 29 29 28 26 27 28 30 31 30 30 30 30 30 30 32 34 35 36
28 28 29 29 30 30 29 27 26 25 25 27 28 27 24 23 22 21 21 21 23 24 26 28 28 29 30 30 30 29 28 28 28 28 27 26 24 23 22 22 24 25 26 26 25 25 24 24 25 28 30 32 31 29 27 27 28 29 29 29 30 30 29 29 30 31 33 34 35
30 30 31 30 30 29 28 26 25 24 26 28 27 25 23 22 21 20 19 20 21 23 24 26 28 28 28 27 26 25 24 24 24 23 22 21 21 20 21 22 23 25 25 25 24 24 24 25 28 31 33 33 30 27 26 27 28 28 28 28 29 29 29 28 29 30 32 33 34
32 33 32 30 29 28 27 26 25 25 26 27 25 24 23 22 21 20 19 19 20 21 22 23 25 25 24 23 22 21 20 20 20 20 19 18 18 19 20 21 22 23 23 22 23 24 26 28 31 33 32 30 27 25 25 27 28 28 28 28 28 28 28 28 29 30 31 32 32
34 34 33 30 29 28 27 26 24 25 26 26 25 24 24 23 22 20 18 18 19 20 20 20 21 21 21 21 20 20 19 19 18 18 17 17 17 17 17 18 19 19 19 20 22 25 28 30 31 31 29 26 25 25 26 27 28 28 28 28 28 28 28 28 29 30 31 31 31
33 32 31 29 28 27 26 25 24 25 26 26 25 25 25 24 22 21 19 19 19 19 19 19 19 19 19 20 19 19 19 18 17 16 16 16 15 15 15 16 16 16 17 18 20 23 25 27 27 27 25 24 24 25 26 27 27 27 27 27 27 27 27 28 29 30 30 31 30
31 29 28 28 28 27 26 25 25 26 26 25 25 26 26 24 22 21 21 21 20 19 19 19 19 19 18 18 18 18 18 18 17 17 16 16 16 15 15 14 14 14 15 17 19 21 22 23 23 23 23 23 24 24 25 26 26 27 26 26 26 26 26 27 28 29 29 29 29
31 29 28 28 28 27 27 26 27 27 26 24 25 26 27 26 23 21 21 22 21 20 19 19 19 19 19 18 18 19 19 20 20 19 19 18 17 16 16 15 15 15 15 16 17 18 19 20 21 21 22 22 23 24 25 26 28 28 27 26 26 25 25 26 26 27 27 27 27
33 31 29 28 28 27 27 27 28 27 25 24 26 27 28 28 26 23 22 22 22 21 19 20 21 21 21 21 21 22 23 24 24 23 21 20 19 18 17 17 17 18 18 18 18 18 18 19 20 20 21 22 23 24 27 29 31 31 30 28 26 26 26 26 26 26 25 25 24
34 32 30 28 28 28 28 29 29 27 25 25 26 27 27 28 27 26 24 24 24 23 23 23 24 24 24 24 25 26 26 27 27 26 24 22 20 19 18 18 20 21 21 21 20 21 22 24 25 25 25 25 26 28 31 33 35 34 31 29 28 27 27 27 27 26 25 24 24
33 31 30 28 28 28 28 29 29 28 27 26 26 26 25 26 27 27 27 27 27 27 27 27 27 27 27 26 26 27 27 27 27 27 26 24 22 20 20 21 22 23 24 23 23 24 27 29 30 30 30 29 30 32 34 36 36 35 33 30 29 29 29 29 29 28 27 27 26
29 29 29 28 28 28 28 28 29 28 28 27 26 26 25 25 26 28 29 29 29 29 29 28 28 27 26 25 24 25 25 25 25 25 25 25 24 23 23 23 24 25 25 24 25 25 26 27 27 27 27 28 30 32 34 35 36 35 34 32 31 30 30 30 30 30 29 28 28
27 28 28 28 28 27 27 27 28 28 28 28 27 27 27 26 27 28 29 29 29 29 28 27 26 25 24 22 22 21 22 22 22 22 22 23 23 23 22 23 22 22 22 21 21 21 20 20 21 21 21 23 25 27 30 31 33 34 34 34 33 31 30 29 29 28 28 28 28
27 27 28 28 28 28 28 28 28 28 28 28 28 28 28 26 26 26 26 27 28 27 26 25 23 22 21 21 20 19 19 20 20 20 20 20 20 20 20 20 20 19 17 16 16 15 15 15 16 16 17 19 20 22 24 26 28 30 32 33 33 32 31 29 28 28 28 29 30
26 27 28 29 30 30 29 28 27 27 27 27 28 28 28 26 25 24 24 25 26 26 24 22 21 20 20 20 19 19 19 19 19 19 19 19 19 19 20 20 20 18 15 14 13 12 12 12 13 13 14 15 16 18 19 21 23 26 28 30 32 32 32 32 31 31 31 32 32
26 27 29 30 31 30 28 27 26 25 25 25 25 26 26 25 23 23 22 23 23 23 22 21 20 19 19 19 18 18 18 18 18 19 19 19 20 20 20 20 19 16 14 13 12 11 11 11 12 12 13 13 13 14 15 16 19 21 24 27 29 31 31 32 31 31 31 31 31
28 29 30 30 30 29 28 27 25 24 23 23 23 23 23 22 22 22 22 22 22 22 21 20 19 18 17 17 16 16 16 16 17 18 18 19 19 19 18 17 15 13 12 12 11 11 11 11 12 13 13 12 12 12 13 14 15 16 18 21 23 25 26 27 28 29 29 29 28
29 29 30 29 28 28 27 27 25 24 22 21 21 21 22 22 22 22 22 21 21 21 19 18 17 16 15 15 14 14 14 15 15 16 16 16 16 15 14 13 12 11 11 11 11 11 11 11 12 12 11 11 12 13 14 15 15 15 16 16 18 19 21 23 24 26 27 28 28
30 29 29 28 27 27 26 26 25 24 23 23 23 24 24 24 24 23 22 20 20 18 17 15 15 14 14 14 14 14 13 13 13 13 13 13 13 12 12 11 11 10 10 10 10 10 10 10 10 10 11 12 13 15 17 18 18 18 18 18 18 19 20 22 24 26 28 29 30
30 30 29 28 27 26 26 26 26 26 26 26 26 26 25 23 21 19 18 16 15 14 13 13 13 13 13 13 13 12 12 12 11 11 11 11 11 11 10 10 10 10 10 10 9 9 9 9 10 10 11 13 14 15 16 17 18 19 21 21 22 22 23 25 27 29 30 32 32
31 30 29 28 27 26 26 25 25 25 25 25 24 21 19 16 14 12 11 10 10 10 11 11 11 11 11 11 10 10 10 11 11 11 10 10 10 10 10 10 10 10 9 9 9 9 9 9 10 11 12 12 13 14 14 13 14 15 17 19 21 22 24 26 27 28 29 30 32
27 28 27 26 25 24 23 21 20 20 19 17 15 13 11 9 8 7 7 7 8 8 8 9 9 9 10 10 11 11 11 11 10 10 10 10 10 9 9 9 9 9 9 8 8 8 9 9 10 11 11 12 12 12 11 10 10 10 11 12 14 16 18 20 21 22 23 25 27
22 22 22 21 20 18 17 15 14 13 12 10 9 8 7 7 7 7 7 7 7 8 8 9 10 10 11 11 12 12 12 11 11 11 10 10 10 9 9 9 10 10 10 9 9 9 9 10 10 10 10 11 12 12 11 10 9 9 8 8 9 9 10 11 13 15 17 18 20
17 16 16 15 14 13 12 11 10 9 8 8 7 7 7 7 8 8 8 8 8 9 10 11 11 12 12 12 13 13 12 12 12 11 11 11 10 10 10 10 11 11 11 11 11 11 11 10 9 9 9 11 11 11 11 11 10 10 9 9 8 8 7 7 8 9 11 12 14
13 12 12 11 11 11 10 9 9 8 8 8 8 9 9 9 9 9 10 10 10 11 12 12 13 13 13 13 13 13 13 13 12 12 12 11 11 10 11 12 12 13 13 13 12 11 11 10 10 9 9 10 11 11 11 11 11 10 10 10 9 9 8 6 6 7 8 9 11
12 11 11 11 11 11 10 9 9 8 8 9 10 10 10 10 10 11 11 11 11 12 13 13 14 14 14 14 14 14 13 13 13 12 12 12 12 12 12 13 13 14 14 13 12 11 10 10 10 10 10 10 11 11 11 11 11 11 11 10 10 10 9 8 7 6 7 8 10
12 11 11 10 10 10 9 9 9 9 9 10 11 11 11 11 11 11 11 12 12 12 13 14 14 14 14 14 13 13 13 13 13 13 13 13 13 13 13 13 13 13 14 13 12 11 10 10 10 10 10 10 11 11 11 11 11 10 10 10 10 10 10 10 9 7 7 8 9
12 11 11 10 10 9 9 10 10 11 11 12 12 13 12 12 12 11 11 11 11 12 12 13 14 14 14 13 13 13 13 13 13 13 14 14 15 15 14 13 13 13 14 13 12 10 10 9 9 9 9 10 10 10 10 9 9 9 10 10 10 9 9 10 10 9 8 8 8
Wind_Direction
211 212 213 213 212 210 208 206 203 198 190 183 192 186 165 156 161 165 167 169 172 176 181 184 188 191 194 197 200 203 206 209 212 215 218 219 219 217 213 209 208 209 211 212 212 210 209 208 208 208 210 211 212 213 214 216 218 221 224 224 223 221 219 218 215 212 211 211 211
208 209 211 210 209 208 206 203 201 197 190 183 188 183 171 171 177 179 178 177 179 181 184 188 191 194 196 199 202 205 207 210 212 214 216 217 216 214 212 211 212 213 214 213 210 208 206 206 207 208 210 211 212 213 213 214 217 222 225 226 225 222 219 217 215 214 212 212 212
205 207 208 207 206 205 203 200 199 197 192 186 184 181 179 182 186 187 186 186 186 187 189 191 193 196 198 200 203 205 207 209 211 212 213 214 214 214 214 214 214 213 212 209 206 205 204 205 207 209 209 210 211 211 212 213 217 222 226 225 224 220 217 215 215 215 214 214 215
203 205 205 204 203 202 200 197 194 193 192 192 192 186 181 183 187 189 189 189 189 190 192 193 195 197 200 201 203 205 207 208 210 211 212 213 214 215 215 214 211 208 206 204 204 205 207 209 210 211 212 211 211 211 212 214 219 224 226 224 221 217 215 214 215 216 217 218 219
202 203 203 202 202 201 199 195 189 189 193 199 200 192 181 179 184 186 187 188 189 191 192 194 196 197 199 202 203 205 206 208 211 213 214 215 215 214 211 208 206 204 203 203 205 208 213 216 217 217 217 216 213 212 213 217 221 225 225 223 219 216 214 213 214 216 219 221 222
200 201 201 200 201 200 199 195 189 188 193 200 201 194 182 179 182 183 184 185 187 189 191 193 195 197 198 201 203 205 207 209 211 213 214 212 210 207 205 203 203 204 205 206 208 212 217 221 221 221 221 220 218 216 217 221 225 226 225 222 219 216 213 213 215 218 221 223 224
199 198 198 199 201 201 199 197 193 191 193 198 200 194 185 182 184 185 185 185 187 188 190 193 195 196 198 199 201 203 205 207 209 209 208 205 202 201 201 202 204 206 207 209 212 216 220 222 221 220 219 220 219 218 220 223 225 227 226 223 220 216 213 214 219 223 225 226 226
198 197 198 201 203 203 200 198 195 193 194 199 201 196 189 190 192 192 191 191 191 192 193 195 197 198 198 198 198 199 200 202 203 203 201 199 200 201 203 204 205 206 208 211 215 220 223 223 221 218 216 216 216 219 221 221 223 225 226 225 221 216 213 216 223 228 230 230 230
195 196 199 204 206 204 200 198 195 193 194 200 201 197 194 197 200 200 199 198 198 198 198 198 199 199 198 196 196 197 198 199 199 198 198 199 202 204 205 204 204 206 209 214 219 223 224 223 221 218 215 214 217 220 220 219 221 225 226 225 220 216 214 219 226 231 233 232 232
194 196 201 206 207 203 198 195 193 192 195 200 200 197 196 201 205 205 203 201 200 199 199 199 198 197 195 195 197 199 200 200 199 198 198 201 204 204 204 204 207 211 215 219 221 222 222 222 220 218 217 219 222 222 219 217 222 225 225 224 220 216 216 222 228 232 234 234 233
194 198 203 206 204 199 194 192 191 192 196 200 198 196 198 203 206 206 203 201 199 197 197 197 195 193 191 193 196 199 200 200 199 198 199 201 203 205 207 210 215 219 221 222 221 220 220 219 219 218 219 222 224 222 219 218 222 225 224 223 220 219 220 225 229 232 234 235 234
195 200 204 204 197 192 190 189 189 192 195 197 194 194 198 204 206 204 201 198 196 195 194 195 194 192 190 191 193 195 197 198 198 199 200 202 205 209 213 217 220 222 223 222 221 219 217 215 215 215 217 220 221 220 219 219 222 224 224 222 221 221 223 226 229 232 234 235 234
197 200 201 195 188 185 185 187 188 190 192 192 190 193 199 204 205 202 199 197 195 193 192 193 193 192 191 191 192 194 196 198 200 202 204 206 210 213 216 218 221 223 224 223 222 218 214 211 210 211 214 217 217 217 217 218 221 222 222 221 221 222 223 225 228 231 233 234 233
197 197 192 185 181 181 182 184 186 188 188 187 188 194 201 203 201 198 196 195 193 192 192 192 193 192 193 193 194 196 198 201 203 205 207 209 211 212 214 217 221 224 225 226 223 218 213 210 209 212 215 218 218 216 215 216 219 220 221 221 221 221 221 223 226 229 231 232 232
194 189 183 178 178 179 180 182 184 185 183 183 189 196 200 198 195 192 191 190 191 191 191 191 191 192 195 197 198 199 201 202 204 205 206 206 207 208 212 217 221 224 225 225 222 218 216 216 217 219 220 221 220 218 216 216 218 220 222 222 221 220 220 221 224 228 230 231 232
188 181 176 175 178 180 182 182 183 181 179 181 190 196 195 191 187 184 184 184 185 187 188 188 189 191 195 198 199 198 197 197 197 197 198 199 200 204 209 214 218 220 221 221 220 221 223 226 227 226 224 223 223 222 220 220 221 223 224 224 222 221 220 221 224 227 230 232 233
183 176 172 176 181 183 184 183 182 178 177 181 189 192 188 184 180 178 177 177 177 178 179 179 181 184 186 187 187 187 186 186 186 187 189 191 195 200 205 209 212 214 215 217 221 226 230 231 230 228 226 225 227 227 226 225 226 226 226 225 223 222 222 223 225 228 230 232 234
180 175 173 178 182 184 183 182 179 174 174 181 187 187 183 179 175 173 171 171 169 168 166 165 166 167 168 169 170 172 174 177 179 181 184 187 190 195 199 203 206 207 209 214 222 228 232 232 230 228 228 230 231 231 230 229 229 229 228 226 225 224 224 225 228 230 232 234 235
177 174 174 177 179 180 179 178 174 171 174 182 184 182 178 175 171 168 166 165 165 163 160 157 156 156 157 159 163 166 170 173 176 179 181 184 187 191 195 198 201 203 206 212 219 225 228 229 228 228 229 231 232 232 232 233 233 232 230 227 225 224 225 227 230 232 234 235 236
170 169 171 173 175 175 176 175 171 171 176 182 181 179 176 173 168 164 163 163 164 162 160 158 158 158 158 161 164 168 171 175 178 181 183 185 188 192 196 199 201 204 207 211 215 218 220 221 222 223 225 227 230 232 234 236 236 235 232 229 226 224 224 226 229 231 233 235 236
163 164 167 170 172 174 174 172 171 174 177 179 178 177 175 172 168 164 162 163 165 164 162 161 163 165 167 170 174 177 179 181 184 186 188 189 192 195 199 203 207 210 213 216 218 219 220 220 219 220 221 224 228 232 235 237 238 237 235 232 228 224 222 223 225 228 231 233 234
163 164 167 169 172 172 171 170 172 174 176 176 176 174 172 169 167 165 165 165 169 169 168 168 171 174 178 182 185 188 189 190 190 191 191 192 194 196 200 204 209 214 218 221 224 227 228 228 227 225 225 226 229 233 236 238 238 238 236 235 233 229 225 223 223 225 227 230 232
167 168 169 171 171 169 167 168 171 174 174 172 172 170 167 162 161 161 163 166 170 172 174 175 177 179 182 186 190 193 194 194 194 194 194 194 196 198 200 203 208 213 216 220 224 228 230 231 231 231 230 231 232 235 237 238 237 237 237 238 238 236 232 229 228 228 229 231 233
170 170 170 170 168 164 162 164 169 171 170 166 164 163 160 156 155 156 159 163 168 172 176 178 179 180 182 185 190 193 195 196 196 196 196 197 199 200 203 206 209 213 216 219 223 225 227 227 228 230 231 232 233 235 236 237 237 237 238 239 240 239 238 236 234 234 235 237 238
167 167 166 165 163 159 157 158 160 161 159 156 155 156 157 157 156 156 158 162 167 172 175 177 177 177 178 181 185 189 191 193 194 196 197 198 200 203 206 209 212 214 216 219 222 224 226 226 227 228 230 231 233 234 234 234 235 236 237 239 239 240 239 239 238 238 239 241 243
159 159 158 157 155 152 150 150 152 152 152 153 154 157 161 163 161 159 159 161 166 170 173 174 172 171 171 174 178 182 185 188 191 194 196 199 201 204 208 211 214 215 216 218 221 224 226 226 227 227 228 230 231 232 231 231 232 233 235 236 238 239 239 240 240 241 243 244 245
150 149 147 146 144 143 145 149 151 152 153 154 156 161 166 169 167 163 161 161 164 168 171 171 169 168 168 171 175 179 183 187 191 194 197 200 202 206 210 214 217 218 218 217 219 222 223 223 223 223 224 226 228 229 229 230 231 232 232 232 233 234 236 239 242 243 244 244 244
141 139 138 138 139 143 149 154 156 157 156 157 160 164 169 172 170 167 164 164 165 168 171 171 171 171 171 173 177 182 187 191 195 198 200 203 206 210 214 218 220 221 220 217 216 217 218 217 216 214 215 217 220 224 228 231 232 231 228 226 226 226 228 233 236 238 239 239 240
135 136 138 141 144 149 155 159 160 159 158 159 162 166 170 172 170 168 168 168 169 171 173 173 174 174 174 176 180 185 190 193 196 199 202 206 209 212 215 218 220 221 220 219 219 219 221 223 223 222 220 218 218 221 225 229 232 231 228 224 222 221 222 225 229 232 235 236 237
140 143 146 147 150 153 156 159 161 160 159 160 162 165 168 169 168 168 169 170 172 173 174 174 175 175 175 177 181 185 189 191 194 196 199 203 207 210 213 215 217 218 220 221 223 224 227 230 235 237 235 232 228 227 227 226 228 230 229 227 225 224 224 226 229 233 235 237 239
145 147 149 151 152 152 154 157 159 160 160 160 161 162 164 166 165 165 166 168 170 172 174 175 177 178 179 181 184 187 189 190 192 193 196 200 204 208 213 216 220 222 224 226 227 227 227 229 234 238 236 229 226 226 226 226 225 225 226 227 228 228 228 230 232 234 235 237 239
146 147 149 151 151 152 153 154 155 156 157 157 157 158 159 160 160 159 160 163 168 172 175 179 182 184 185 187 189 191 193 195 197 200 204 208 213 217 220 223 225 226 226 225 224 222 219 217 221 223 222 219 222 226 227 227 225 224 225 226 228 229 230 231 232 233 233 234 236
145 147 148 149 149 149 149 149 149 149 150 151 151 152 153 154 155 157 159 164 170 176 181 186 189 190 190 191 194 197 201 205 210 213 215 217 219 220 220 220 220 221 220 218 215 212 207 204 204 207 211 214 220 226 232 233 230 228 227 227 229 231 232 233 234 234 234 234 235
142 144 145 145 144 144 143 143 143 144 145 146 147 148 151 154 159 164 170 175 180 185 189 192 192 192 192 193 196 199 204 208 210 211 210 210 210 210 210 211 212 213 211 208 208 208 206 204 203 204 206 209 216 223 230 234 233 231 230 230 231 233 235 236 237 237 237 237 237
137 138 138 138 138 138 138 139 140 142 143 145 147 151 157 163 170 177 182 185 187 188 188 188 188 188 186 187 189 193 196 198 199 200 199 200 201 202 204 205 206 205 202 201 206 211 213 212 209 206 204 203 206 211 216 220 223 224 224 226 229 232 235 238 239 240 240 241 241
132 133 133 133 135 136 138 140 142 145 147 150 155 159 163 164 166 168 171 173 176 176 176 176 177 177 177 178 182 186 189 193 194 195 196 197 198 200 201 199 198 195 193 196 204 211 214 212 208 204 201 199 199 200 203 205 207 207 207 209 214 219 227 233 239 241 242 243 244
130 131 132 133 136 138 141 144 147 149 151 152 152 151 149 149 152 155 159 163 167 169 170 171 172 173 175 179 183 187 190 193 195 196 196 196 196 197 197 194 189 186 187 193 201 207 210 207 203 201 201 202 200 199 200 201 202 202 200 199 199 200 205 218 230 237 240 242 244
128 128 130 134 137 140 142 144 145 145 144 143 141 141 143 146 151 156 161 166 170 172 173 174 176 179 182 186 189 191 193 194 195 195 195 192 190 190 189 188 184 182 185 191 197 202 204 202 201 203 207 209 209 207 206 205 205 203 202 199 197 192 190 196 212 226 233 236 238
130 131 132 134 135 137 137 139 140 140 140 142 142 145 148 153 158 162 166 170 175 178 180 181 183 184 186 189 192 194 194 193 192 191 189 185 181 180 182 183 182 183 184 187 189 192 195 197 201 205 210 213 215 215 213 211 208 207 205 202 200 195 191 191 199 214 225 228 229
133 134 134 134 135 136 138 140 143 145 147 149 151 154 156 160 164 167 170 173 176 179 182 184 183 183 185 188 192 195 194 190 187 185 182 177 173 173 177 181 184 184 182 180 179 181 186 193 199 204 209 213 216 218 217 215 212 209 208 207 205 203 199 195 196 205 217 224 225
133 135 136 137 139 142 145 147 149 151 153 155 157 158 160 163 165 168 169 170 171 174 178 180 180 180 181 184 189 194 194 186 180 176 174 170 168 168 173 178 181 180 177 174 173 177 183 192 198 204 208 211 214 217 218 217 213 211 210 210 210 209 206 202 200 202 210 220 224